FW8607 Weather Reports


time (UTC)temp
F
wind
direction
speed
knots
gust
knots
rain 1hr
in
rain 24hr
in
rain mn
in
humidity
%
barometer
mb
20260902013018 77 248 6.1 10.4 0.00 0.00 0.00 61 1013.3
20260902010018 79 248 6.1 13.0 0.00 0.00 0.00 57 1013.4
20260902003018 81 248 6.1 12.2 0.00 0.00 0.00 53 1013.5
20260902000018 81 248 8.7 13.9 0.00 0.00 0.00 53 1013.6
20260901233018 83 270 7.8 14.8 0.00 0.00 0.00 49 1013.8
20260901230018 83 248 8.7 15.6 0.00 0.00 0.00 51 1013.8
20260901223018 84 248 8.7 16.5 0.00 0.00 0.00 49 1013.8
20260901220018 85 270 8.7 16.5 0.00 0.00 0.00 48 1013.8
20260901213038 85 270 7.8 14.8 0.00 0.00 0.00 47 1014.0
20260901210018 85 248 7.8 16.5 0.00 0.00 0.00 51 1014.1
20260901203018 85 270 7.0 16.5 0.00 0.00 0.00 52 1014.3
20260901200017 84 293 7.8 13.9 0.00 0.00 0.00 51 1014.6
20260901193018 84 315 7.0 12.2 0.00 0.00 0.00 53 1014.8
20260901190018 82 338 5.2 11.3 0.00 0.00 0.00 57 1014.8
20260901183019 81 293 4.3 10.4 0.00 0.00 0.00 59 1015.1
20260901180019 77 338 3.5 8.7 0.00 0.00 0.00 65 1015.1
20260901173039 75 315 4.3 11.3 0.00 0.00 0.00 70 1015.3
20260901170019 72 338 5.2 9.6 0.00 0.00 0.00 76 1015.0
20260901163040 70 315 4.3 8.7 0.00 0.00 0.00 83 1015.0
20260901160019 67 293 3.5 8.7 0.00 0.00 0.00 92 1014.4
20260901153019 65 315 3.5 7.0 0.00 0.00 0.00 95 1014.3
20260901150039 64 293 1.7 7.0 0.00 0.00 0.00 95 1014.1
20260901143019 62 90 1.7 3.5 0.00 0.00 0.00 95 1013.9
20260901140019 62 90 2.6 6.1 0.00 0.00 0.00 94 1013.8
20260901133019 62 113 3.5 6.1 0.00 0.00 0.00 94 1013.6
20260901130019 63 135 1.7 4.3 0.00 0.00 0.00 93 1013.7
20260901123019 62 135 0.9 3.5 0.00 0.00 0.00 93 1013.7
20260901120019 64 0.0 0.0 0.00 0.00 0.00 93 1014.0
20260901113018 64 0.0 0.0 0.00 0.00 0.00 93 1013.7
20260901110018 63 0.0 0.9 0.00 0.00 0.00 92 1013.4
20260901103018 63 0.0 2.6 0.00 0.00 0.00 92 1013.5
20260901100018 63 135 0.9 2.6 0.00 0.00 0.00 92 1013.8
20260901093019 64 0.0 1.7 0.00 0.00 0.00 91 1013.8
20260901090018 64 0.0 0.9 0.00 0.00 0.00 91 1013.8
20260901083018 65 0.0 0.9 0.00 0.00 0.00 91 1013.9
20260901080018 65 135 0.9 2.6 0.00 0.00 0.00 90 1013.9
20260901073018 65 0.0 1.7 0.00 0.00 0.00 90 1013.9
20260901070018 65 270 0.9 2.6 0.00 0.00 0.00 89 1014.0
20260901063018 66 270 1.7 3.5 0.00 0.00 0.00 89 1014.2
20260901060018 67 270 1.7 3.5 0.00 0.00 0.00 87 1014.1
20260901053018 67 270 0.9 2.6 0.00 0.00 0.00 87 1013.8
20260901050018 68 270 1.7 2.6 0.00 0.00 0.00 86 1013.5
20260901043038 68 248 1.7 3.5 0.00 0.00 0.00 85 1013.4
20260901040018 69 248 2.6 4.3 0.00 0.00 0.00 83 1013.5
20260901033038 70 270 2.6 5.2 0.00 0.00 0.00 82 1012.8
20260901030017 71 248 5.2 7.8 0.00 0.00 0.00 79 1012.6
20260901023038 73 248 5.2 8.7 0.00 0.00 0.00 74 1012.3
20260901020017 76 248 6.1 10.4 0.00 0.00 0.00 68 1011.9